Time,TemperatureF,DewpointF,PressureIn,WindDirection,WindDirectionDegrees,WindSpeedMPH,WindSpeedGustMPH,Humidity,HourlyPrecipIn,Conditions,Clouds,dailyrainin,SoftwareType,DateUTC
2013-06-30 00:00:00,70.6,67.5,29.72,North,0,0.0,3.0,90,0.00,,---,0.00,VWS V14.01,2013-06-30 04:00:00,
2013-06-30 00:05:00,70.6,67.5,29.72,West,270,0.0,4.0,90,0.00,,---,0.00,VWS V14.01,2013-06-30 04:05:00,
2013-06-30 00:10:00,70.7,67.6,29.73,SW,225,1.0,7.0,90,0.00,,---,0.00,VWS V14.01,2013-06-30 04:10:00,
2013-06-30 00:15:00,70.7,67.6,29.73,WNW,292,0.0,7.0,90,0.00,,---,0.00,VWS V14.01,2013-06-30 04:15:00,
2013-06-30 00:20:00,70.7,67.6,29.73,West,270,0.0,3.0,90,0.00,,---,0.00,VWS V14.01,2013-06-30 04:20:00,
2013-06-30 00:25:00,70.8,67.7,29.72,WSW,248,0.0,4.0,90,0.00,,---,0.00,VWS V14.01,2013-06-30 04:25:00,
2013-06-30 00:30:00,70.8,67.7,29.72,ESE,112,0.0,1.0,90,0.00,,---,0.00,VWS V14.01,2013-06-30 04:30:00,
2013-06-30 00:35:00,70.7,67.6,29.73,SW,225,0.0,1.0,90,0.00,,---,0.00,VWS V14.01,2013-06-30 04:35:00,
2013-06-30 00:40:00,70.7,67.6,29.73,WNW,292,0.0,3.0,90,0.00,,---,0.00,VWS V14.01,2013-06-30 04:40:00,
2013-06-30 00:45:00,70.7,67.6,29.73,West,270,0.0,3.0,90,0.00,,---,0.00,VWS V14.01,2013-06-30 04:45:00,
2013-06-30 00:50:00,70.7,67.6,29.73,WNW,292,0.0,2.0,90,0.00,,---,0.00,VWS V14.01,2013-06-30 04:50:00,
2013-06-30 00:55:00,70.6,67.5,29.73,SSE,158,0.0,3.0,90,0.00,,---,0.00,VWS V14.01,2013-06-30 04:55:00,
2013-06-30 01:00:00,70.6,67.8,29.73,WSW,248,0.0,2.0,91,0.00,,---,0.00,VWS V14.01,2013-06-30 05:00:00,
2013-06-30 01:05:00,70.5,67.8,29.73,WSW,248,0.0,1.0,91,0.00,,---,0.00,VWS V14.01,2013-06-30 05:05:00,
2013-06-30 01:10:00,70.5,67.8,29.73,WSW,248,0.0,1.0,91,0.00,,---,0.00,VWS V14.01,2013-06-30 05:10:00,
2013-06-30 01:15:00,70.4,67.7,29.73,WNW,292,0.0,3.0,91,0.00,,---,0.00,VWS V14.01,2013-06-30 05:15:00,
2013-06-30 01:20:00,70.4,67.7,29.73,SE,135,0.0,2.0,91,0.00,,---,0.00,VWS V14.01,2013-06-30 05:20:00,
2013-06-30 01:25:00,70.4,67.7,29.73,West,270,0.0,2.0,91,0.00,,---,0.00,VWS V14.01,2013-06-30 05:25:00,
2013-06-30 01:30:00,70.4,67.7,29.73,WSW,248,0.0,2.0,91,0.00,,---,0.00,VWS V14.01,2013-06-30 05:30:00,
2013-06-30 01:35:00,70.4,67.7,29.73,WSW,248,0.0,3.0,91,0.00,,---,0.00,VWS V14.01,2013-06-30 05:35:00,
2013-06-30 01:40:00,70.4,67.7,29.73,WNW,292,0.0,1.0,91,0.00,,---,0.00,VWS V14.01,2013-06-30 05:40:00,
2013-06-30 01:45:00,70.3,67.6,29.73,WNW,292,0.0,1.0,91,0.00,,---,0.00,VWS V14.01,2013-06-30 05:45:00,
2013-06-30 01:50:00,70.3,67.6,29.73,East,90,0.0,1.0,91,0.00,,---,0.00,VWS V14.01,2013-06-30 05:50:00,
2013-06-30 01:55:00,70.2,67.4,29.73,NNW,338,0.0,3.0,91,0.00,,---,0.00,VWS V14.01,2013-06-30 05:55:00,
2013-06-30 02:00:00,70.2,67.4,29.73,WSW,248,0.0,1.0,91,0.00,,---,0.00,VWS V14.01,2013-06-30 06:00:00,
2013-06-30 02:05:00,70.1,67.4,29.73,WSW,248,0.0,0.0,91,0.00,,---,0.00,VWS V14.01,2013-06-30 06:05:00,
2013-06-30 02:10:00,70.1,67.4,29.73,WSW,248,0.0,0.0,91,0.00,,---,0.00,VWS V14.01,2013-06-30 06:10:00,
2013-06-30 02:15:00,70.0,67.3,29.74,SSW,202,0.0,1.0,91,0.00,,---,0.00,VWS V14.01,2013-06-30 06:15:00,
2013-06-30 02:20:00,70.0,67.6,29.73,SSW,202,0.0,0.0,92,0.00,,---,0.00,VWS V14.01,2013-06-30 06:20:00,
2013-06-30 02:25:00,69.9,67.5,29.73,SSW,202,0.0,0.0,92,0.00,,---,0.00,VWS V14.01,2013-06-30 06:25:00,
2013-06-30 02:30:00,69.8,67.4,29.73,SSW,202,0.0,1.0,92,0.00,,---,0.00,VWS V14.01,2013-06-30 06:30:00,
2013-06-30 02:35:00,69.8,67.4,29.74,SSW,202,0.0,1.0,92,0.00,,---,0.00,VWS V14.01,2013-06-30 06:35:00,
2013-06-30 02:40:00,69.7,67.3,29.73,SSW,202,0.0,0.0,92,0.00,,---,0.00,VWS V14.01,2013-06-30 06:40:00,
2013-06-30 02:45:00,69.7,67.3,29.73,SSW,202,0.0,0.0,92,0.00,,---,0.00,VWS V14.01,2013-06-30 06:45:00,
2013-06-30 02:50:00,69.6,67.2,29.73,SSW,202,0.0,0.0,92,0.00,,---,0.00,VWS V14.01,2013-06-30 06:50:00,
2013-06-30 02:55:00,69.6,67.2,29.74,SSW,202,0.0,1.0,92,0.00,,---,0.00,VWS V14.01,2013-06-30 06:55:00,
2013-06-30 03:00:00,69.5,67.4,29.74,SSW,202,0.0,1.0,93,0.00,,---,0.00,VWS V14.01,2013-06-30 07:00:00,
2013-06-30 03:05:00,69.4,67.3,29.74,SSW,202,0.0,1.0,93,0.00,,---,0.00,VWS V14.01,2013-06-30 07:05:00,
2013-06-30 03:10:00,69.3,67.2,29.74,SSW,202,0.0,1.0,93,0.00,,---,0.00,VWS V14.01,2013-06-30 07:10:00,
2013-06-30 03:15:00,69.3,67.2,29.74,SSW,202,0.0,0.0,93,0.00,,---,0.00,VWS V14.01,2013-06-30 07:15:00,
2013-06-30 03:20:00,69.2,67.1,29.74,SSW,202,0.0,0.0,93,0.00,,---,0.00,VWS V14.01,2013-06-30 07:20:00,
2013-06-30 03:25:00,69.1,67.0,29.74,SSW,202,0.0,1.0,93,0.00,,---,0.00,VWS V14.01,2013-06-30 07:25:00,
2013-06-30 03:30:00,69.1,67.0,29.74,SSW,202,0.0,1.0,93,0.00,,---,0.00,VWS V14.01,2013-06-30 07:30:00,
2013-06-30 03:35:00,69.0,67.2,29.74,SSW,202,0.0,1.0,94,0.00,,---,0.00,VWS V14.01,2013-06-30 07:35:00,
2013-06-30 03:40:00,69.0,67.2,29.74,SSW,202,0.0,1.0,94,0.00,,---,0.00,VWS V14.01,2013-06-30 07:40:00,
2013-06-30 03:45:00,68.9,67.1,29.74,SSW,202,0.0,1.0,94,0.00,,---,0.00,VWS V14.01,2013-06-30 07:45:00,
2013-06-30 03:50:00,68.9,67.1,29.74,SSW,202,0.0,0.0,94,0.00,,---,0.00,VWS V14.01,2013-06-30 07:50:00,
2013-06-30 03:55:00,68.9,67.1,29.74,SSW,202,0.0,0.0,94,0.00,,---,0.00,VWS V14.01,2013-06-30 07:55:00,
2013-06-30 04:00:00,68.8,67.0,29.74,SSW,202,0.0,1.0,94,0.00,,---,0.00,VWS V14.01,2013-06-30 08:00:00,
2013-06-30 04:05:00,68.8,67.3,29.75,SSW,202,0.0,1.0,95,0.00,,---,0.00,VWS V14.01,2013-06-30 08:05:00,
2013-06-30 04:10:00,68.9,67.4,29.74,WSW,248,0.0,3.0,95,0.00,,---,0.00,VWS V14.01,2013-06-30 08:10:00,
2013-06-30 04:15:00,69.0,67.5,29.74,WSW,248,0.0,1.0,95,0.00,,---,0.00,VWS V14.01,2013-06-30 08:15:00,
2013-06-30 04:20:00,69.0,67.5,29.75,NE,45,0.0,3.0,95,0.00,,---,0.00,VWS V14.01,2013-06-30 08:20:00,
2013-06-30 04:25:00,69.0,67.5,29.75,NE,45,0.0,1.0,95,0.00,,---,0.00,VWS V14.01,2013-06-30 08:25:00,
2013-06-30 04:30:00,69.0,67.5,29.75,NE,45,0.0,0.0,95,0.00,,---,0.00,VWS V14.01,2013-06-30 08:30:00,
2013-06-30 04:35:00,69.0,67.5,29.75,NE,45,0.0,0.0,95,0.00,,---,0.00,VWS V14.01,2013-06-30 08:35:00,
2013-06-30 04:40:00,69.0,67.5,29.75,NE,45,0.0,1.0,95,0.00,,---,0.00,VWS V14.01,2013-06-30 08:40:00,
2013-06-30 04:45:00,69.0,67.5,29.75,NE,45,0.0,0.0,95,0.00,,---,0.00,VWS V14.01,2013-06-30 08:45:00,
2013-06-30 04:50:00,69.0,67.5,29.75,NE,45,0.0,0.0,95,0.00,,---,0.00,VWS V14.01,2013-06-30 08:50:00,
2013-06-30 04:55:00,69.0,67.5,29.75,NE,45,0.0,0.0,95,0.00,,---,0.00,VWS V14.01,2013-06-30 08:55:00,
2013-06-30 05:00:00,68.9,67.4,29.76,NE,45,0.0,0.0,95,0.00,,---,0.00,VWS V14.01,2013-06-30 09:00:00,
2013-06-30 05:05:00,68.9,67.4,29.76,NE,45,0.0,0.0,95,0.00,,---,0.00,VWS V14.01,2013-06-30 09:05:00,
2013-06-30 05:10:00,68.9,67.4,29.76,NE,45,0.0,1.0,95,0.00,,---,0.00,VWS V14.01,2013-06-30 09:10:00,
2013-06-30 05:15:00,69.0,67.5,29.76,NE,45,0.0,0.0,95,0.00,,---,0.00,VWS V14.01,2013-06-30 09:15:00,
2013-06-30 05:20:00,69.0,67.5,29.76,NE,45,0.0,1.0,95,0.00,,---,0.00,VWS V14.01,2013-06-30 09:20:00,
2013-06-30 05:25:00,69.1,67.6,29.76,North,0,0.0,1.0,95,0.00,,---,0.00,VWS V14.01,2013-06-30 09:25:00,
2013-06-30 05:30:00,69.2,67.7,29.77,NW,315,0.0,1.0,95,0.00,,---,0.00,VWS V14.01,2013-06-30 09:30:00,
2013-06-30 05:35:00,69.3,67.8,29.77,NW,315,0.0,1.0,95,0.00,,---,0.00,VWS V14.01,2013-06-30 09:35:00,
2013-06-30 05:40:00,69.4,67.9,29.77,NW,315,0.0,1.0,95,0.00,,---,0.00,VWS V14.01,2013-06-30 09:40:00,
2013-06-30 05:45:00,69.4,67.9,29.77,NNW,338,0.0,2.0,95,0.00,,---,0.00,VWS V14.01,2013-06-30 09:45:00,
2013-06-30 05:50:00,69.5,68.0,29.77,WNW,292,0.0,1.0,95,0.00,,---,0.00,VWS V14.01,2013-06-30 09:50:00,
2013-06-30 05:55:00,69.6,68.1,29.77,WNW,292,0.0,2.0,95,0.00,,---,0.00,VWS V14.01,2013-06-30 09:55:00,
2013-06-30 06:00:00,69.8,68.3,29.77,SSW,202,0.0,2.0,95,0.00,,---,0.00,VWS V14.01,2013-06-30 10:00:00,
2013-06-30 06:05:00,69.9,68.4,29.78,NW,315,0.0,2.0,95,0.00,,---,0.00,VWS V14.01,2013-06-30 10:05:00,
2013-06-30 06:10:00,70.0,68.5,29.78,WSW,248,0.0,2.0,95,0.00,,---,0.00,VWS V14.01,2013-06-30 10:10:00,
2013-06-30 06:15:00,70.2,68.7,29.78,WSW,248,0.0,4.0,95,0.00,,---,0.00,VWS V14.01,2013-06-30 10:15:00,
2013-06-30 06:20:00,70.3,68.5,29.78,South,180,0.0,2.0,94,0.00,,---,0.00,VWS V14.01,2013-06-30 10:20:00,
2013-06-30 06:25:00,70.5,68.7,29.78,SW,225,0.0,2.0,94,0.00,,---,0.00,VWS V14.01,2013-06-30 10:25:00,
2013-06-30 06:30:00,70.6,68.8,29.78,SSW,202,1.0,3.0,94,0.00,,---,0.00,VWS V14.01,2013-06-30 10:30:00,
2013-06-30 06:35:00,70.7,68.9,29.79,SSW,202,1.0,3.0,94,0.00,,---,0.00,VWS V14.01,2013-06-30 10:35:00,
2013-06-30 06:40:00,70.8,69.0,29.79,South,180,1.0,4.0,94,0.00,,---,0.00,VWS V14.01,2013-06-30 10:40:00,
2013-06-30 06:45:00,70.9,69.1,29.79,North,0,0.0,3.0,94,0.00,,---,0.00,VWS V14.01,2013-06-30 10:45:00,
2013-06-30 06:50:00,71.0,69.2,29.79,South,180,0.0,2.0,94,0.00,,---,0.00,VWS V14.01,2013-06-30 10:50:00,
2013-06-30 06:55:00,71.1,69.0,29.79,South,180,0.0,1.0,93,0.00,,---,0.00,VWS V14.01,2013-06-30 10:55:00,
2013-06-30 07:00:00,71.2,69.1,29.80,East,90,0.0,2.0,93,0.00,,---,0.00,VWS V14.01,2013-06-30 11:00:00,
2013-06-30 07:05:00,71.4,69.3,29.80,NE,45,1.0,4.0,93,0.00,,---,0.00,VWS V14.01,2013-06-30 11:05:00,
2013-06-30 07:10:00,71.6,69.5,29.80,WSW,248,1.0,5.0,93,0.00,,---,0.00,VWS V14.01,2013-06-30 11:10:00,
2013-06-30 07:15:00,71.8,69.7,29.81,West,270,0.0,1.0,93,0.00,,---,0.00,VWS V14.01,2013-06-30 11:15:00,
2013-06-30 07:20:00,72.0,69.9,29.81,WSW,248,1.0,5.0,93,0.00,,---,0.00,VWS V14.01,2013-06-30 11:20:00,
2013-06-30 07:25:00,72.2,69.8,29.81,WSW,248,0.0,3.0,92,0.00,,---,0.00,VWS V14.01,2013-06-30 11:25:00,
2013-06-30 07:30:00,72.3,69.8,29.81,NW,315,1.0,3.0,92,0.00,,---,0.00,VWS V14.01,2013-06-30 11:30:00,
2013-06-30 07:35:00,72.6,70.2,29.81,West,270,0.0,3.0,92,0.00,,---,0.00,VWS V14.01,2013-06-30 11:35:00,
2013-06-30 07:40:00,72.8,70.0,29.81,NE,45,0.0,4.0,91,0.00,,---,0.00,VWS V14.01,2013-06-30 11:40:00,
2013-06-30 07:45:00,73.1,70.3,29.82,WSW,248,1.0,3.0,91,0.00,,---,0.00,VWS V14.01,2013-06-30 11:45:00,
2013-06-30 07:50:00,73.3,70.2,29.82,West,270,1.0,6.0,90,0.00,,---,0.00,VWS V14.01,2013-06-30 11:50:00,
2013-06-30 07:55:00,73.5,70.4,29.82,WSW,248,1.0,3.0,90,0.00,,---,0.00,VWS V14.01,2013-06-30 11:55:00,
2013-06-30 08:00:00,73.8,70.7,29.82,WNW,292,0.0,3.0,90,0.00,,---,0.00,VWS V14.01,2013-06-30 12:00:00,
2013-06-30 08:05:00,74.0,70.6,29.82,WSW,248,1.0,3.0,89,0.00,,---,0.00,VWS V14.01,2013-06-30 12:05:00,
2013-06-30 08:10:00,74.2,70.4,29.82,WSW,248,1.0,6.0,88,0.00,,---,0.00,VWS V14.01,2013-06-30 12:10:00,
2013-06-30 08:15:00,74.5,70.7,29.82,SSW,202,1.0,3.0,88,0.00,,---,0.00,VWS V14.01,2013-06-30 12:15:00,
2013-06-30 08:20:00,74.9,71.1,29.83,NW,315,0.0,4.0,88,0.00,,---,0.00,VWS V14.01,2013-06-30 12:20:00,
2013-06-30 08:25:00,75.1,70.6,29.83,WSW,248,1.0,5.0,86,0.00,,---,0.00,VWS V14.01,2013-06-30 12:25:00,
2013-06-30 08:30:00,75.3,71.2,29.83,SW,225,0.0,1.0,87,0.00,,---,0.00,VWS V14.01,2013-06-30 12:30:00,
2013-06-30 08:35:00,75.6,71.1,29.83,NW,315,1.0,5.0,86,0.00,,---,0.00,VWS V14.01,2013-06-30 12:35:00,
2013-06-30 08:40:00,75.7,71.2,29.83,West,270,0.0,2.0,86,0.00,,---,0.00,VWS V14.01,2013-06-30 12:40:00,
2013-06-30 08:45:00,75.8,71.0,29.83,West,270,1.0,4.0,85,0.00,,---,0.00,VWS V14.01,2013-06-30 12:45:00,
2013-06-30 08:50:00,76.0,71.5,29.83,SSW,202,0.0,2.0,86,0.00,,---,0.00,VWS V14.01,2013-06-30 12:50:00,
2013-06-30 08:55:00,76.3,71.8,29.83,SSW,202,0.0,1.0,86,0.00,,---,0.00,VWS V14.01,2013-06-30 12:55:00,
2013-06-30 09:00:00,76.6,71.8,29.83,SW,225,0.0,1.0,85,0.00,,---,0.00,VWS V14.01,2013-06-30 13:00:00,
2013-06-30 09:05:00,76.9,71.7,29.83,West,270,0.0,3.0,84,0.00,,---,0.00,VWS V14.01,2013-06-30 13:05:00,
2013-06-30 09:10:00,77.0,71.8,29.83,West,270,0.0,1.0,84,0.00,,---,0.00,VWS V14.01,2013-06-30 13:10:00,
2013-06-30 09:15:00,77.2,71.6,29.83,WNW,292,0.0,2.0,83,0.00,,---,0.00,VWS V14.01,2013-06-30 13:15:00,
2013-06-30 09:20:00,77.4,71.8,29.83,WNW,292,1.0,5.0,83,0.00,,---,0.00,VWS V14.01,2013-06-30 13:20:00,
2013-06-30 09:25:00,77.7,72.1,29.83,SSW,202,0.0,3.0,83,0.00,,---,0.00,VWS V14.01,2013-06-30 13:25:00,
2013-06-30 09:30:00,77.9,71.6,29.83,West,270,1.0,4.0,81,0.00,,---,0.00,VWS V14.01,2013-06-30 13:30:00,
2013-06-30 09:35:00,78.3,72.0,29.83,WSW,248,0.0,2.0,81,0.00,,---,0.00,VWS V14.01,2013-06-30 13:35:00,
2013-06-30 09:40:00,78.6,72.3,29.83,West,270,1.0,6.0,81,0.00,,---,0.00,VWS V14.01,2013-06-30 13:40:00,
2013-06-30 09:45:00,79.1,72.4,29.83,ENE,68,0.0,3.0,80,0.00,,---,0.00,VWS V14.01,2013-06-30 13:45:00,
2013-06-30 09:50:00,79.4,72.3,29.83,WNW,292,1.0,5.0,79,0.00,,---,0.00,VWS V14.01,2013-06-30 13:50:00,
2013-06-30 09:55:00,79.5,72.0,29.83,NW,315,1.0,6.0,78,0.00,,---,0.00,VWS V14.01,2013-06-30 13:55:00,
2013-06-30 10:00:00,79.7,72.6,29.83,ENE,68,0.0,3.0,79,0.00,,---,0.00,VWS V14.01,2013-06-30 14:00:00,
2013-06-30 10:05:00,79.8,72.7,29.83,NE,45,0.0,1.0,79,0.00,,---,0.00,VWS V14.01,2013-06-30 14:05:00,
2013-06-30 10:10:00,80.1,72.6,29.83,NW,315,0.0,2.0,78,0.00,,---,0.00,VWS V14.01,2013-06-30 14:10:00,
2013-06-30 10:15:00,80.3,72.8,29.83,WNW,292,0.0,3.0,78,0.00,,---,0.00,VWS V14.01,2013-06-30 14:15:00,
2013-06-30 10:20:00,80.8,72.5,29.83,NE,45,0.0,4.0,76,0.00,,---,0.00,VWS V14.01,2013-06-30 14:20:00,
2013-06-30 10:25:00,81.2,73.3,29.83,North,0,0.0,2.0,77,0.00,,---,0.00,VWS V14.01,2013-06-30 14:25:00,
2013-06-30 10:30:00,81.4,73.5,29.83,North,0,1.0,4.0,77,0.00,,---,0.00,VWS V14.01,2013-06-30 14:30:00,
2013-06-30 10:35:00,81.4,73.9,29.83,SW,225,1.0,3.0,78,0.00,,---,0.00,VWS V14.01,2013-06-30 14:35:00,
2013-06-30 10:40:00,81.6,73.7,29.83,NNE,22,0.0,1.0,77,0.00,,---,0.00,VWS V14.01,2013-06-30 14:40:00,
2013-06-30 10:45:00,81.5,73.6,29.83,West,270,1.0,6.0,77,0.00,,---,0.00,VWS V14.01,2013-06-30 14:45:00,
2013-06-30 10:50:00,81.4,72.3,29.83,WSW,248,1.0,5.0,74,0.00,,---,0.00,VWS V14.01,2013-06-30 14:50:00,
2013-06-30 10:55:00,81.1,72.8,29.84,West,270,1.0,5.0,76,0.00,,---,0.00,VWS V14.01,2013-06-30 14:55:00,
2013-06-30 11:00:00,81.3,74.2,29.84,WNW,292,0.0,2.0,79,0.00,,---,0.00,VWS V14.01,2013-06-30 15:00:00,
2013-06-30 11:05:00,81.3,73.0,29.84,West,270,1.0,5.0,76,0.00,,---,0.00,VWS V14.01,2013-06-30 15:05:00,
2013-06-30 11:10:00,81.2,72.5,29.83,NW,315,1.0,3.0,75,0.00,,---,0.00,VWS V14.01,2013-06-30 15:10:00,
2013-06-30 11:15:00,81.4,72.7,29.83,West,270,1.0,6.0,75,0.00,,---,0.00,VWS V14.01,2013-06-30 15:15:00,
2013-06-30 11:20:00,81.4,72.7,29.84,SW,225,1.0,4.0,75,0.00,,---,0.00,VWS V14.01,2013-06-30 15:20:00,
2013-06-30 11:25:00,81.5,72.0,29.84,WSW,248,1.0,5.0,73,0.00,,---,0.00,VWS V14.01,2013-06-30 15:25:00,
2013-06-30 11:30:00,81.5,72.8,29.84,WSW,248,1.0,6.0,75,0.00,,---,0.00,VWS V14.01,2013-06-30 15:30:00,
2013-06-30 11:35:00,81.7,72.6,29.84,West,270,1.0,4.0,74,0.00,,---,0.00,VWS V14.01,2013-06-30 15:35:00,
2013-06-30 11:40:00,81.8,73.1,29.84,West,270,1.0,4.0,75,0.00,,---,0.00,VWS V14.01,2013-06-30 15:40:00,
2013-06-30 11:45:00,82.1,73.0,29.84,ENE,68,1.0,4.0,74,0.00,,---,0.00,VWS V14.01,2013-06-30 15:45:00,
2013-06-30 11:50:00,82.1,73.0,29.84,WSW,248,1.0,5.0,74,0.00,,---,0.00,VWS V14.01,2013-06-30 15:50:00,
2013-06-30 11:55:00,82.3,73.6,29.84,WNW,292,0.0,2.0,75,0.00,,---,0.00,VWS V14.01,2013-06-30 15:55:00,
2013-06-30 12:00:00,82.7,72.8,29.84,WSW,248,1.0,4.0,72,0.00,,---,0.00,VWS V14.01,2013-06-30 16:00:00,
2013-06-30 12:05:00,82.8,74.5,29.84,WNW,292,1.0,7.0,76,0.00,,---,0.00,VWS V14.01,2013-06-30 16:05:00,
2013-06-30 12:10:00,82.7,74.0,29.84,WSW,248,1.0,4.0,75,0.00,,---,0.00,VWS V14.01,2013-06-30 16:10:00,
2013-06-30 12:15:00,82.5,73.0,29.83,West,270,1.0,4.0,73,0.00,,---,0.00,VWS V14.01,2013-06-30 16:15:00,
2013-06-30 12:20:00,82.7,74.8,29.83,SW,225,1.0,3.0,77,0.00,,---,0.00,VWS V14.01,2013-06-30 16:20:00,
2013-06-30 12:25:00,83.3,72.9,29.84,West,270,1.0,5.0,71,0.00,,---,0.00,VWS V14.01,2013-06-30 16:25:00,
2013-06-30 12:30:00,83.8,75.0,29.83,NW,315,0.0,3.0,75,0.00,,---,0.00,VWS V14.01,2013-06-30 16:30:00,
2013-06-30 12:35:00,84.3,74.7,29.83,NE,45,1.0,4.0,73,0.00,,---,0.00,VWS V14.01,2013-06-30 16:35:00,
2013-06-30 12:40:00,84.4,74.0,29.83,SW,225,1.0,5.0,71,0.00,,---,0.00,VWS V14.01,2013-06-30 16:40:00,
2013-06-30 12:45:00,84.6,75.4,29.83,SE,135,1.0,7.0,74,0.00,,---,0.00,VWS V14.01,2013-06-30 16:45:00,
2013-06-30 12:50:00,84.6,73.7,29.83,WSW,248,1.0,5.0,70,0.00,,---,0.00,VWS V14.01,2013-06-30 16:50:00,
2013-06-30 12:55:00,84.3,73.9,29.84,ESE,112,1.0,3.0,71,0.00,,---,0.00,VWS V14.01,2013-06-30 16:55:00,
2013-06-30 13:00:00,84.2,73.8,29.84,NW,315,1.0,4.0,71,0.00,,---,0.00,VWS V14.01,2013-06-30 17:00:00,
2013-06-30 13:05:00,84.2,75.0,29.84,West,270,1.0,6.0,74,0.00,,---,0.00,VWS V14.01,2013-06-30 17:05:00,
2013-06-30 13:10:00,84.0,73.2,29.84,WNW,292,1.0,7.0,70,0.00,,---,0.00,VWS V14.01,2013-06-30 17:10:00,
2013-06-30 13:15:00,83.7,73.3,29.84,WSW,248,1.0,4.0,71,0.00,,---,0.00,VWS V14.01,2013-06-30 17:15:00,
2013-06-30 13:20:00,83.6,73.2,29.83,WSW,248,1.0,5.0,71,0.00,,---,0.00,VWS V14.01,2013-06-30 17:20:00,
2013-06-30 13:25:00,83.6,72.4,29.83,South,180,2.0,5.0,69,0.00,,---,0.00,VWS V14.01,2013-06-30 17:25:00,
2013-06-30 13:30:00,83.6,74.0,29.83,WNW,292,1.0,4.0,73,0.00,,---,0.00,VWS V14.01,2013-06-30 17:30:00,
2013-06-30 13:35:00,83.9,73.9,29.83,NNE,22,1.0,6.0,72,0.00,,---,0.00,VWS V14.01,2013-06-30 17:35:00,
2013-06-30 13:40:00,84.0,73.2,29.83,West,270,2.0,5.0,70,0.00,,---,0.00,VWS V14.01,2013-06-30 17:40:00,
2013-06-30 13:45:00,84.2,73.4,29.83,West,270,1.0,4.0,70,0.00,,---,0.00,VWS V14.01,2013-06-30 17:45:00,
2013-06-30 13:50:00,84.4,72.7,29.83,West,270,1.0,6.0,68,0.00,,---,0.00,VWS V14.01,2013-06-30 17:50:00,
2013-06-30 13:55:00,84.4,72.7,29.83,WNW,292,1.0,5.0,68,0.00,,---,0.00,VWS V14.01,2013-06-30 17:55:00,
2013-06-30 14:00:00,84.5,74.5,29.83,WNW,292,1.0,6.0,72,0.00,,---,0.00,VWS V14.01,2013-06-30 18:00:00,
2013-06-30 14:05:00,84.8,73.9,29.83,NNE,22,1.0,3.0,70,0.00,,---,0.00,VWS V14.01,2013-06-30 18:05:00,
2013-06-30 14:10:00,85.0,74.1,29.83,SE,135,1.0,5.0,70,0.00,,---,0.00,VWS V14.01,2013-06-30 18:10:00,
2013-06-30 14:15:00,84.9,73.6,29.83,SSE,158,1.0,6.0,69,0.00,,---,0.00,VWS V14.01,2013-06-30 18:15:00,
2013-06-30 14:20:00,84.7,73.8,29.83,WNW,292,1.0,6.0,70,0.00,,---,0.00,VWS V14.01,2013-06-30 18:20:00,
2013-06-30 14:25:00,84.4,74.0,29.83,NW,315,0.0,7.0,71,0.00,,---,0.00,VWS V14.01,2013-06-30 18:25:00,
2013-06-30 14:30:00,84.2,73.4,29.83,NW,315,1.0,4.0,70,0.00,,---,0.00,VWS V14.01,2013-06-30 18:30:00,
2013-06-30 14:35:00,84.0,73.2,29.84,WSW,248,1.0,9.0,70,0.00,,---,0.00,VWS V14.01,2013-06-30 18:35:00,
2013-06-30 14:40:00,83.8,73.8,29.84,WNW,292,1.0,5.0,72,0.00,,---,0.00,VWS V14.01,2013-06-30 18:40:00,
2013-06-30 14:45:00,83.6,73.2,29.84,NNW,338,1.0,4.0,71,0.00,,---,0.00,VWS V14.01,2013-06-30 18:45:00,
2013-06-30 14:50:00,83.3,73.3,29.84,West,270,1.0,5.0,72,0.00,,---,0.00,VWS V14.01,2013-06-30 18:50:00,
2013-06-30 14:55:00,83.3,72.9,29.84,NW,315,1.0,6.0,71,0.00,,---,0.00,VWS V14.01,2013-06-30 18:55:00,
2013-06-30 15:00:00,83.5,73.9,29.84,SE,135,1.0,5.0,73,0.00,,---,0.00,VWS V14.01,2013-06-30 19:00:00,
2013-06-30 15:05:00,83.5,73.9,29.84,NE,45,1.0,5.0,73,0.00,,---,0.00,VWS V14.01,2013-06-30 19:05:00,
2013-06-30 15:10:00,83.2,74.5,29.84,NNW,338,1.0,4.0,75,0.00,,---,0.00,VWS V14.01,2013-06-30 19:10:00,
2013-06-30 15:15:00,83.1,74.4,29.84,NW,315,0.0,4.0,75,0.00,,---,0.00,VWS V14.01,2013-06-30 19:15:00,
2013-06-30 15:20:00,82.9,74.2,29.84,South,180,1.0,4.0,75,0.00,,---,0.00,VWS V14.01,2013-06-30 19:20:00,
2013-06-30 15:25:00,82.9,73.8,29.84,WNW,292,1.0,3.0,74,0.00,,---,0.00,VWS V14.01,2013-06-30 19:25:00,
2013-06-30 15:30:00,82.8,74.9,29.84,NE,45,1.0,4.0,77,0.00,,---,0.00,VWS V14.01,2013-06-30 19:30:00,
2013-06-30 15:35:00,82.9,74.2,29.84,South,180,1.0,5.0,75,0.00,,---,0.00,VWS V14.01,2013-06-30 19:35:00,
2013-06-30 15:40:00,82.9,74.6,29.84,SE,135,1.0,6.0,76,0.00,,---,0.00,VWS V14.01,2013-06-30 19:40:00,
2013-06-30 15:45:00,82.8,74.5,29.84,NNW,338,1.0,4.0,76,0.00,,---,0.00,VWS V14.01,2013-06-30 19:45:00,
2013-06-30 15:50:00,82.7,74.4,29.84,SSE,158,1.0,2.0,76,0.00,,---,0.00,VWS V14.01,2013-06-30 19:50:00,
2013-06-30 15:55:00,82.5,74.2,29.84,West,270,1.0,6.0,76,0.00,,---,0.00,VWS V14.01,2013-06-30 19:55:00,
2013-06-30 16:00:00,82.4,74.5,29.84,NE,45,1.0,6.0,77,0.00,,---,0.00,VWS V14.01,2013-06-30 20:00:00,
2013-06-30 16:05:00,82.1,73.4,29.84,WSW,248,2.0,7.0,75,0.00,,---,0.00,VWS V14.01,2013-06-30 20:05:00,
2013-06-30 16:10:00,81.8,73.5,29.84,West,270,2.0,7.0,76,0.00,,---,0.00,VWS V14.01,2013-06-30 20:10:00,
2013-06-30 16:15:00,82.1,74.2,29.84,NW,315,1.0,3.0,77,0.00,,---,0.00,VWS V14.01,2013-06-30 20:15:00,
2013-06-30 16:20:00,82.1,74.2,29.85,NW,315,2.0,10.0,77,0.00,,---,0.00,VWS V14.01,2013-06-30 20:20:00,
2013-06-30 16:25:00,82.1,73.4,29.85,NNE,22,1.0,5.0,75,0.00,,---,0.00,VWS V14.01,2013-06-30 20:25:00,
2013-06-30 16:30:00,81.9,73.2,29.85,NW,315,1.0,6.0,75,0.00,,---,0.00,VWS V14.01,2013-06-30 20:30:00,
2013-06-30 16:35:00,81.7,73.0,29.85,West,270,0.0,4.0,75,0.00,,---,0.00,VWS V14.01,2013-06-30 20:35:00,
2013-06-30 16:40:00,81.7,73.0,29.85,SE,135,1.0,5.0,75,0.00,,---,0.00,VWS V14.01,2013-06-30 20:40:00,
2013-06-30 16:45:00,81.8,72.3,29.85,SW,225,2.0,8.0,73,0.00,,---,0.00,VWS V14.01,2013-06-30 20:45:00,
2013-06-30 16:50:00,82.1,73.0,29.85,West,270,1.0,4.0,74,0.00,,---,0.00,VWS V14.01,2013-06-30 20:50:00,
2013-06-30 16:55:00,82.4,72.9,29.85,WNW,292,1.0,4.0,73,0.00,,---,0.00,VWS V14.01,2013-06-30 20:55:00,
2013-06-30 17:00:00,82.1,72.6,29.85,South,180,1.0,5.0,73,0.00,,---,0.00,VWS V14.01,2013-06-30 21:00:00,
2013-06-30 17:05:00,81.5,72.4,29.85,South,180,2.0,13.0,74,0.00,,---,0.00,VWS V14.01,2013-06-30 21:05:00,
2013-06-30 17:10:00,81.2,72.1,29.85,WSW,248,1.0,4.0,74,0.00,,---,0.00,VWS V14.01,2013-06-30 21:10:00,
2013-06-30 17:15:00,81.3,72.6,29.86,North,0,1.0,5.0,75,0.00,,---,0.00,VWS V14.01,2013-06-30 21:15:00,
2013-06-30 17:20:00,81.4,72.3,29.86,NNE,22,1.0,3.0,74,0.00,,---,0.00,VWS V14.01,2013-06-30 21:20:00,
2013-06-30 17:25:00,81.2,72.5,29.86,West,270,1.0,6.0,75,0.00,,---,0.00,VWS V14.01,2013-06-30 21:25:00,
2013-06-30 17:30:00,80.7,72.4,29.86,NNW,338,1.0,10.0,76,0.00,,---,0.00,VWS V14.01,2013-06-30 21:30:00,
2013-06-30 17:35:00,80.3,72.1,29.86,West,270,1.0,6.0,76,0.00,,---,0.00,VWS V14.01,2013-06-30 21:35:00,
2013-06-30 17:40:00,80.1,71.9,29.86,SSW,202,1.0,6.0,76,0.00,,---,0.00,VWS V14.01,2013-06-30 21:40:00,
2013-06-30 17:45:00,80.1,72.6,29.86,West,270,1.0,5.0,78,0.00,,---,0.00,VWS V14.01,2013-06-30 21:45:00,
2013-06-30 17:50:00,80.1,72.2,29.86,West,270,1.0,5.0,77,0.00,,---,0.00,VWS V14.01,2013-06-30 21:50:00,
2013-06-30 17:55:00,80.1,72.2,29.86,West,270,1.0,4.0,77,0.00,,---,0.00,VWS V14.01,2013-06-30 21:55:00,
2013-06-30 18:00:00,80.2,71.9,29.87,West,270,1.0,7.0,76,0.00,,---,0.00,VWS V14.01,2013-06-30 22:00:00,
2013-06-30 18:05:00,80.4,71.8,29.86,SSW,202,2.0,10.0,75,0.00,,---,0.00,VWS V14.01,2013-06-30 22:05:00,
2013-06-30 18:10:00,80.2,71.6,29.87,North,0,1.0,4.0,75,0.00,,---,0.00,VWS V14.01,2013-06-30 22:10:00,
2013-06-30 18:15:00,79.8,71.6,29.87,SSW,202,1.0,4.0,76,0.00,,---,0.00,VWS V14.01,2013-06-30 22:15:00,
2013-06-30 18:20:00,79.7,71.9,29.87,South,180,0.0,3.0,77,0.00,,---,0.00,VWS V14.01,2013-06-30 22:20:00,
2013-06-30 18:25:00,79.5,71.3,29.88,West,270,1.0,10.0,76,0.00,,---,0.00,VWS V14.01,2013-06-30 22:25:00,
2013-06-30 18:30:00,79.3,71.5,29.88,ENE,68,1.0,4.0,77,0.00,,---,0.00,VWS V14.01,2013-06-30 22:30:00,
2013-06-30 18:35:00,79.1,71.3,29.88,West,270,1.0,5.0,77,0.00,,---,0.00,VWS V14.01,2013-06-30 22:35:00,
2013-06-30 18:40:00,79.0,71.6,29.88,WSW,248,1.0,5.0,78,0.00,,---,0.00,VWS V14.01,2013-06-30 22:40:00,
2013-06-30 18:45:00,78.9,71.5,29.88,SW,225,1.0,10.0,78,0.00,,---,0.00,VWS V14.01,2013-06-30 22:45:00,
2013-06-30 18:50:00,78.7,71.3,29.88,WNW,292,1.0,7.0,78,0.00,,---,0.00,VWS V14.01,2013-06-30 22:50:00,
2013-06-30 18:55:00,78.5,71.4,29.89,NNW,338,0.0,1.0,79,0.00,,---,0.00,VWS V14.01,2013-06-30 22:55:00,
2013-06-30 19:00:00,78.4,71.3,29.89,ESE,112,1.0,5.0,79,0.00,,---,0.00,VWS V14.01,2013-06-30 23:00:00,
2013-06-30 19:05:00,78.4,71.3,29.89,WNW,292,1.0,5.0,79,0.00,,---,0.00,VWS V14.01,2013-06-30 23:05:00,
2013-06-30 19:10:00,78.3,70.9,29.89,NW,315,1.0,7.0,78,0.00,,---,0.00,VWS V14.01,2013-06-30 23:10:00,
2013-06-30 19:15:00,78.1,71.1,29.89,WNW,292,1.0,6.0,79,0.00,,---,0.00,VWS V14.01,2013-06-30 23:15:00,
2013-06-30 19:20:00,77.9,70.5,29.90,WNW,292,0.0,2.0,78,0.00,,---,0.00,VWS V14.01,2013-06-30 23:20:00,
2013-06-30 19:25:00,77.8,70.4,29.90,ESE,112,0.0,3.0,78,0.00,,---,0.00,VWS V14.01,2013-06-30 23:25:00,
2013-06-30 19:30:00,77.6,70.6,29.90,South,180,0.0,2.0,79,0.00,,---,0.00,VWS V14.01,2013-06-30 23:30:00,
2013-06-30 19:35:00,77.5,70.5,29.90,SW,225,0.0,2.0,79,0.00,,---,0.00,VWS V14.01,2013-06-30 23:35:00,
2013-06-30 19:40:00,77.3,70.3,29.90,SW,225,0.0,1.0,79,0.00,,---,0.00,VWS V14.01,2013-06-30 23:40:00,
2013-06-30 19:45:00,77.1,70.5,29.90,West,270,0.0,4.0,80,0.00,,---,0.00,VWS V14.01,2013-06-30 23:45:00,
2013-06-30 19:50:00,77.0,70.4,29.90,WSW,248,0.0,2.0,80,0.00,,---,0.00,VWS V14.01,2013-06-30 23:50:00,
2013-06-30 19:55:00,76.9,70.3,29.90,West,270,0.0,4.0,80,0.00,,---,0.00,VWS V14.01,2013-06-30 23:55:00,
2013-06-30 20:00:00,76.7,70.1,29.90,NW,315,0.0,1.0,80,0.00,,---,0.00,VWS V14.01,2013-07-01 00:00:00,
2013-06-30 20:05:00,76.5,69.9,29.90,SW,225,0.0,3.0,80,0.00,,---,0.00,VWS V14.01,2013-07-01 00:05:00,
2013-06-30 20:10:00,76.4,69.8,29.90,WNW,292,0.0,1.0,80,0.00,,---,0.00,VWS V14.01,2013-07-01 00:10:00,
2013-06-30 20:15:00,76.2,69.9,29.90,South,180,0.0,3.0,81,0.00,,---,0.00,VWS V14.01,2013-07-01 00:15:00,
2013-06-30 20:20:00,76.0,69.4,29.90,SSE,158,0.0,1.0,80,0.00,,---,0.00,VWS V14.01,2013-07-01 00:20:00,
2013-06-30 20:25:00,75.8,69.6,29.90,SSE,158,0.0,0.0,81,0.00,,---,0.00,VWS V14.01,2013-07-01 00:25:00,
2013-06-30 20:30:00,75.6,69.7,29.91,WSW,248,0.0,2.0,82,0.00,,---,0.00,VWS V14.01,2013-07-01 00:30:00,
2013-06-30 20:35:00,75.4,69.5,29.91,WSW,248,0.0,1.0,82,0.00,,---,0.00,VWS V14.01,2013-07-01 00:35:00,
2013-06-30 20:40:00,75.3,69.4,29.91,WSW,248,0.0,1.0,82,0.00,,---,0.00,VWS V14.01,2013-07-01 00:40:00,
2013-06-30 20:45:00,75.2,69.3,29.91,WSW,248,0.0,0.0,82,0.00,,---,0.00,VWS V14.01,2013-07-01 00:45:00,
2013-06-30 20:50:00,75.2,69.3,29.91,SE,135,0.0,1.0,82,0.00,,---,0.00,VWS V14.01,2013-07-01 00:50:00,
2013-06-30 20:55:00,75.2,69.7,29.91,SE,135,0.0,1.0,83,0.00,,---,0.00,VWS V14.01,2013-07-01 00:55:00,
2013-06-30 21:00:00,75.2,69.7,29.91,ESE,112,0.0,1.0,83,0.00,,---,0.00,VWS V14.01,2013-07-01 01:00:00,
2013-06-30 21:05:00,75.2,69.7,29.91,SE,135,0.0,1.0,83,0.00,,---,0.00,VWS V14.01,2013-07-01 01:05:00,
2013-06-30 21:10:00,75.1,69.6,29.91,SE,135,0.0,1.0,83,0.00,,---,0.00,VWS V14.01,2013-07-01 01:10:00,
2013-06-30 21:15:00,75.1,69.6,29.91,West,270,0.0,3.0,83,0.00,,---,0.00,VWS V14.01,2013-07-01 01:15:00,
2013-06-30 21:20:00,75.1,69.6,29.92,West,270,0.0,3.0,83,0.00,,---,0.00,VWS V14.01,2013-07-01 01:20:00,
2013-06-30 21:25:00,75.1,69.6,29.92,ESE,112,0.0,2.0,83,0.00,,---,0.00,VWS V14.01,2013-07-01 01:25:00,
2013-06-30 21:30:00,75.0,69.5,29.92,ESE,112,0.0,1.0,83,0.00,,---,0.00,VWS V14.01,2013-07-01 01:30:00,
2013-06-30 21:35:00,75.0,69.8,29.92,North,0,1.0,6.0,84,0.00,,---,0.00,VWS V14.01,2013-07-01 01:35:00,
2013-06-30 21:40:00,74.9,69.7,29.92,North,0,0.0,1.0,84,0.00,,---,0.00,VWS V14.01,2013-07-01 01:40:00,
2013-06-30 21:45:00,74.9,69.7,29.92,North,0,0.0,3.0,84,0.00,,---,0.00,VWS V14.01,2013-07-01 01:45:00,
2013-06-30 21:50:00,74.9,69.7,29.92,North,0,0.0,2.0,84,0.00,,---,0.00,VWS V14.01,2013-07-01 01:50:00,
2013-06-30 21:55:00,74.9,69.7,29.92,ESE,112,0.0,1.0,84,0.00,,---,0.00,VWS V14.01,2013-07-01 01:55:00,
2013-06-30 22:00:00,74.8,69.7,29.93,East,90,0.0,2.0,84,0.00,,---,0.00,VWS V14.01,2013-07-01 02:00:00,
2013-06-30 22:05:00,74.8,69.7,29.93,ESE,112,0.0,3.0,84,0.00,,---,0.00,VWS V14.01,2013-07-01 02:05:00,
2013-06-30 22:10:00,74.7,69.6,29.93,West,270,0.0,2.0,84,0.00,,---,0.00,VWS V14.01,2013-07-01 02:10:00,
2013-06-30 22:15:00,74.7,69.6,29.93,WSW,248,0.0,2.0,84,0.00,,---,0.00,VWS V14.01,2013-07-01 02:15:00,
2013-06-30 22:20:00,74.6,69.8,29.93,WSW,248,0.0,1.0,85,0.00,,---,0.00,VWS V14.01,2013-07-01 02:20:00,
2013-06-30 22:25:00,74.6,69.8,29.93,NNW,338,0.0,3.0,85,0.00,,---,0.00,VWS V14.01,2013-07-01 02:25:00,
2013-06-30 22:30:00,74.5,69.7,29.93,NNW,338,0.0,1.0,85,0.00,,---,0.00,VWS V14.01,2013-07-01 02:30:00,
2013-06-30 22:35:00,74.4,69.9,29.93,ENE,68,0.0,2.0,86,0.00,,---,0.00,VWS V14.01,2013-07-01 02:35:00,
2013-06-30 22:40:00,74.3,69.8,29.93,ENE,68,0.0,1.0,86,0.00,,---,0.00,VWS V14.01,2013-07-01 02:40:00,
2013-06-30 22:45:00,74.2,70.1,29.93,West,270,1.0,4.0,87,0.00,,---,0.00,VWS V14.01,2013-07-01 02:45:00,
2013-06-30 22:50:00,74.1,70.0,29.93,West,270,0.0,2.0,87,0.00,,---,0.00,VWS V14.01,2013-07-01 02:50:00,
2013-06-30 22:55:00,74.0,70.2,29.93,West,270,0.0,0.0,88,0.00,,---,0.00,VWS V14.01,2013-07-01 02:55:00,
2013-06-30 23:00:00,74.0,70.2,29.93,East,90,0.0,1.0,88,0.00,,---,0.00,VWS V14.01,2013-07-01 03:00:00,
2013-06-30 23:05:00,73.9,70.1,29.92,East,90,0.0,1.0,88,0.00,,---,0.00,VWS V14.01,2013-07-01 03:05:00,
2013-06-30 23:10:00,73.8,70.0,29.92,East,90,0.0,2.0,88,0.00,,---,0.00,VWS V14.01,2013-07-01 03:10:00,
2013-06-30 23:15:00,73.7,69.9,29.93,SE,135,0.0,1.0,88,0.00,,---,0.00,VWS V14.01,2013-07-01 03:15:00,
2013-06-30 23:20:00,73.7,69.9,29.93,WNW,292,0.0,5.0,88,0.00,,---,0.00,VWS V14.01,2013-07-01 03:20:00,
2013-06-30 23:25:00,73.6,70.2,29.93,WSW,248,0.0,2.0,89,0.00,,---,0.00,VWS V14.01,2013-07-01 03:25:00,
2013-06-30 23:30:00,73.5,70.1,29.93,WSW,248,0.0,1.0,89,0.00,,---,0.00,VWS V14.01,2013-07-01 03:30:00,
2013-06-30 23:35:00,73.5,70.1,29.93,West,270,0.0,2.0,89,0.00,,---,0.00,VWS V14.01,2013-07-01 03:35:00,
2013-06-30 23:40:00,73.5,70.1,29.93,West,270,0.0,1.0,89,0.00,,---,0.00,VWS V14.01,2013-07-01 03:40:00,
2013-06-30 23:45:00,73.4,70.3,29.93,West,270,0.0,1.0,90,0.00,,---,0.00,VWS V14.01,2013-07-01 03:45:00,
2013-06-30 23:50:00,73.3,70.2,29.93,WSW,248,0.0,4.0,90,0.00,,---,0.00,VWS V14.01,2013-07-01 03:50:00,
2013-06-30 23:55:00,73.2,70.1,29.93,ESE,112,0.0,1.0,90,0.00,,---,0.00,VWS V14.01,2013-07-01 03:55:00,